Meteo Giornale » Osservazioni meteo Stati Uniti (USA) » St Petersburg Whitted
ore: 04:53 - Osservazioni Meteo St Petersburg Whitted
Lat. 27° 46' N Lon. 82° 37' W Alt. 2 metri s.l.m.
27 °C
Sereno
Temp. 24 Ore
26 °C
32 °C
Est/Nord-Est
14.8 Km/h
Dew point 26 °C
Umidità 94 %
Visibilità 10 Km
Il sole sorge alle ore 07:09
Il sole tramonta alle ore 19:51
| Data e Ora | Cielo e Fenomeni | T °C | DP °C | Um. % | Pres. hPa | Vis. km | Vento km/h | |
|---|---|---|---|---|---|---|---|---|
| Oggi h: 04:53 | Sereno | 27 | 26 | 94 | 1015 | 10 | E/NE 14.8 | |
| Oggi h: 04:08 | Poco Nuvoloso | 27 | 26 | 94 | 1015 | 10 | NE 16.7 | |
| Oggi h: 03:53 | Sereno | 27 | 26 | 94 | 1015 | 10 | E/NE 16.7 | |
| Oggi h: 02:53 | Sereno | 27 | 26 | 94 | 1015 | 10 | NE 20.3 | |
| Oggi h: 01:53 | Sereno | 27 | 26 | 94 | 1016 | 10 | E/NE 14.8 | |
| Oggi h: 00:53 | Sereno | 27 | 25 | 88 | 1017 | 10 | E 13 | |
| Ieri h: 23:53 | Poco Nuvoloso | 27 | 25 | 88 | 1017 | 10 | E/NE 16.7 | |
| Ieri h: 22:53 | Sereno | 28 | 23 | 74 | 1016 | 10 | E 11.1 | |
| Ieri h: 21:53 | Sereno | 27 | 23 | 78 | 1016 | 10 | E 11.1 | |
| Ieri h: 20:53 | Sereno | 27 | 24 | 83 | 1016 | 10 | E 13 | |
| Ieri h: 19:53 | Pioggia | 26 | 24 | 88 | 1016 | 10 | E/SE 14.8 | |
| Ieri h: 19:00 | Coperto | 27 | 25 | 88 | 1016 | 10 | E 18.5 | |
| Ieri h: 18:53 | Temporale nelle vicinanze | 27 | 25 | 88 | 1016 | 10 | E/SE 22.2 | |
| Ieri h: 18:07 | Temporale nelle vicinanze | 27 | 26 | 94 | 1016 | 10 | E/NE 44.4 | |
| Ieri h: 17:53 | Temporale nelle vicinanze | 28 | 26 | 88 | 1016 | 10 | E/NE 53.7 | |
| Ieri h: 17:46 | Temporale nelle vicinanze | 31 | 25 | 70 | 1015 | 10 | N 13 | |
| Ieri h: 16:53 | Coperto | 32 | 24 | 62 | 1015 | 10 | NO 16.7 | |
| Ieri h: 15:53 | Nuvoloso | 32 | 24 | 62 | 1015 | 10 | N 9.3 | |
| Ieri h: 14:53 | Nuvoloso | 32 | 24 | 62 | 1015 | 10 | N 5.5 | |
| Ieri h: 13:53 | Sereno | 32 | 24 | 62 | 1016 | 10 | N 0 | |
| Ieri h: 12:53 | Sereno | 32 | 26 | 70 | 1017 | 10 | N 5.5 | |
| Ieri h: 11:53 | Sereno | 30 | 26 | 79 | 1017 | 10 | E 7.4 | |
| Ieri h: 10:53 | Sereno | 29 | 26 | 83 | 1017 | 10 | E 9.3 | |
| Ieri h: 09:53 | Sereno | 28 | 26 | 88 | 1017 | 10 | E 11.1 | |
| Ieri h: 08:53 | Poco Nuvoloso | 27 | 26 | 94 | 1017 | 10 | NE 13 | |
| Ieri h: 08:39 | Nuvoloso | 27 | 25 | 88 | 1017 | 10 | NE 14.8 | |
| Ieri h: 08:29 | Molto Nuvoloso | 27 | 26 | 94 | 1017 | 10 | NE 14.8 | |
| Ieri h: 07:53 | Sereno | 27 | 26 | 94 | 1016 | 10 | E 7.4 | |
| Ieri h: 06:53 | Sereno | 26 | 25 | 94 | 1016 | 10 | SE 11.1 | |
| Ieri h: 05:53 | Sereno | 26 | 25 | 94 | 1015 | 10 | E/SE 11.1 | |



